DW3200 Weather Reports


time (UTC)temp
F
wind
direction
speed
knots
gust
knots
rain 1hr
in
rain 24hr
in
rain mn
in
humidity
%
barometer
mb
20260902214516 66 65 1.7 0.0 0.00 0.00 0.41 65 1006.6
20260902213008 65 65 2.6 0.0 0.00 0.00 0.41 66 1006.8
20260902211544 64 70 1.7 0.0 0.00 0.00 0.41 68 1007.0
20260902210042 63 85 3.5 0.0 0.00 0.00 0.41 68 1007.2
20260902204525 62 68 1.7 0.0 0.00 0.00 0.41 73 1007.2
20260902203024 61 76 2.6 0.0 0.00 0.00 0.41 75 1007.4
20260902201503 59 88 0.9 0.0 0.00 0.00 0.39 82 1007.6
20260902200003 58 90 0.9 0.0 0.00 0.00 0.38 88 1007.8
20260902194600 56 94 1.7 0.0 0.00 0.00 0.37 92 1007.9
20260902193044 55 101 2.6 0.0 0.00 0.00 0.35 92 1008.3
20260902191536 55 132 0.0 0.0 0.00 0.00 0.33 93 1008.4
20260902190017 55 136 0.0 0.0 0.00 0.00 0.31 93 1008.4
20260902184514 54 136 0.0 0.0 0.00 0.00 0.30 93 1008.4
20260902183054 53 136 0.0 0.0 0.00 0.00 0.28 93 1008.4
20260902181553 53 136 0.9 0.0 0.00 0.00 0.25 93 1008.7
20260902180036 52 134 3.5 0.0 0.00 0.00 0.23 92 1008.3
20260902174534 51 59 6.1 0.0 0.00 0.00 0.20 92 1007.6
20260902173021 51 57 4.3 0.0 0.00 0.00 0.17 91 1008.0
20260902171513 51 85 0.0 0.0 0.00 0.00 0.15 91 1009.6
20260902170100 51 85 0.0 0.0 0.00 0.00 0.12 90 1009.2
20260902164559 51 86 2.6 0.0 0.00 0.00 0.10 90 1009.5
20260902163056 51 122 0.9 0.0 0.00 0.00 0.07 89 1009.3
20260902161558 51 124 0.0 0.0 0.00 0.00 0.06 88 1009.1
20260902160107 51 123 0.0 0.0 0.00 0.00 0.04 87 1008.6
20260902154600 52 123 0.0 0.0 0.00 0.00 0.02 85 1008.7
20260902153054 53 123 0.9 0.0 0.00 0.00 0.01 84 1009.3
20260902151553 53 80 0.9 0.0 0.00 0.00 0.01 83 1008.3
20260902150031 53 88 0.0 0.0 0.00 0.00 0.00 85 1007.9
20260902144527 52 88 0.0 0.0 0.00 0.00 0.00 85 1007.5
20260902143010 52 88 0.0 0.0 0.00 0.00 0.00 86 1007.4
20260902141506 51 88 0.0 0.0 0.00 0.00 0.00 86 1006.6
20260902140047 51 88 0.0 0.0 0.00 0.00 0.01 86 1006.5
20260902134545 51 88 0.0 0.0 0.00 0.00 0.01 85 1005.9
20260902133029 52 88 0.0 0.0 0.00 0.00 0.01 85 1005.8
20260902131536 52 88 0.0 0.0 0.00 0.00 0.01 84 1005.6
20260902130010 52 88 0.0 0.0 0.00 0.00 0.01 85 1005.4
20260902124514 52 88 0.0 0.0 0.00 0.00 0.01 86 1005.3
20260902123053 51 88 0.0 0.0 0.00 0.00 0.01 86 1005.1
20260902121552 51 88 0.0 0.0 0.00 0.00 0.01 86 1004.9
20260902120037 51 88 0.0 0.0 0.00 0.00 0.01 86 1004.8
20260902114541 50 88 0.0 0.0 0.00 0.00 0.01 85 1004.6
20260902113016 50 88 0.0 0.0 0.00 0.00 0.01 85 1004.5
20260902111516 50 88 0.0 0.0 0.00 0.00 0.01 85 1004.5
20260902104618 50 88 0.0 0.0 0.00 0.00 0.01 84 1004.3
20260902103040 50 88 0.0 0.0 0.00 0.00 0.01 83 1004.2
20260902101540 51 88 0.0 0.0 0.00 0.00 0.01 84 1004.1
20260902100022 51 88 0.0 0.0 0.00 0.00 0.01 83 1004.1
20260902094521 51 88 0.0 0.0 0.00 0.00 0.01 82 1004.1
20260902093002 52 88 0.0 0.0 0.00 0.00 0.01 83 1004.2
20260902091501 52 88 0.0 0.0 0.00 0.00 0.01 82 1004.4
20260902090041 52 88 0.0 0.0 0.00 0.00 0.01 81 1004.8
20260902084540 52 88 0.0 0.0 0.00 0.00 0.01 80 1005.0
20260902083028 53 88 0.0 0.0 0.00 0.00 0.01 76 1004.9
20260902081527 54 88 0.0 0.0 0.00 0.00 0.01 74 1004.9
20260902080027 56 88 0.0 0.0 0.00 0.00 0.01 72 1004.9
20260902074527 60 88 0.0 0.0 0.00 0.00 0.01 63 1004.9
20260902073027 64 88 0.0 0.0 0.00 0.00 0.01 59 1005.0
20260902071533 65 88 0.9 0.0 0.00 0.00 0.01 57 1005.0
20260902070026 65 89 2.6 0.0 0.00 0.00 0.01 58 1004.9
20260902064524 63 34 0.9 0.0 0.00 0.00 0.01 62 1005.0
20260902063005 62 34 0.9 0.0 0.00 0.00 0.01 66 1005.2
20260902061506 58 32 0.0 0.0 0.00 0.00 0.01 75 1005.3
20260902060111 58 32 0.9 0.0 0.00 0.00 0.01 73 1005.2
20260902054547 59 37 0.0 0.0 0.00 0.00 0.01 72 1005.3
20260902053029 59 37 0.0 0.0 0.00 0.00 0.01 70 1005.8
20260902051529 60 37 0.0 0.0 0.00 0.00 0.01 69 1005.8
20260902050014 60 38 0.0 0.0 0.00 0.00 0.01 70 1005.5
20260902044526 61 38 0.0 0.0 0.00 0.00 0.01 67 1005.2
20260902043056 62 38 0.0 0.0 0.00 0.00 0.01 68 1005.2
20260902041552 61 38 0.0 0.0 0.00 0.00 0.01 69 1005.3
20260902040035 61 71 0.9 0.0 0.00 0.00 0.01 68 1005.5
20260902034533 62 103 0.0 0.0 0.00 0.00 0.01 64 1005.5
20260902033014 64 103 0.0 0.0 0.00 0.00 0.01 62 1005.3
20260902031519 65 103 0.9 0.0 0.00 0.00 0.01 60 1005.3
20260902030057 65 98 0.9 0.0 0.00 0.00 0.01 60 1005.4
20260902024607 66 82 0.0 0.0 0.00 0.00 0.01 60 1005.4
20260902023040 66 82 1.7 0.0 0.00 0.00 0.01 60 1005.5
20260902021544 66 53 0.9 0.0 0.00 0.00 0.01 62 1005.5
20260902020019 66 22 0.0 0.0 0.00 0.00 0.01 64 1005.5
20260902014541 65 22 0.9 0.0 0.00 0.00 0.01 65 1005.5
20260902013001 65 22 0.0 0.0 0.00 0.00 0.01 65 1005.2
20260902011501 65 22 1.7 0.0 0.00 0.00 0.01 64 1005.3
20260902010049 66 21 2.6 0.0 0.00 0.00 0.01 64 1005.9
20260902004546 65 323 0.9 0.0 0.00 0.00 0.01 66 1005.9
20260902003045 65 55 3.5 0.0 0.00 0.00 0.01 67 1005.8
20260902001545 65 65 2.6 0.0 0.00 0.00 0.01 65 1006.1
20260902000046 65 65 5.2 0.0 0.00 0.00 0.01 64 1005.8
20260901234600 65 73 7.8 0.0 0.00 0.00 0.01 65 1005.8
20260901233052 65 62 6.1 0.0 0.00 0.00 0.01 62 1006.0
20260901231544 66 48 3.5 0.0 0.00 0.00 0.01 61 1006.2
20260901230049 65 346 0.9 0.0 0.00 0.00 0.01 63 1006.3
20260901224544 65 303 0.0 0.0 0.00 0.00 0.01 65 1006.9
20260901223023 65 303 3.5 0.0 0.00 0.00 0.01 64 1007.2
20260901221555 66 300 4.3 0.0 0.00 0.00 0.01 61 1007.4
20260901220012 66 292 3.5 0.0 0.00 0.00 0.00 58 1007.2